<?xml version="1.0" encoding="UTF-8" standalone="no" ?>
<gpx xmlns="http://www.topografix.com/GPX/1/1" xmlns:xsi="http://www.w3.org/2001/XMLSchema-instance" xsi:schemaLocation="http://www.topografix.com/GPX/1/1 http://www.topografix.com/GPX/1/1/gpx.xsd" version="1.1" creator="VisuGPX - https://www.visugpx.com">
  <metadata>
    <name>GITER Poitou Charentes : boucle 86</name>
    <desc><![CDATA[Partie en Vienne de la Boucle centrale
[url]http://cdte86.free.fr/spip.php?article137[/url]]]></desc>
  </metadata>
  <trk>
    <name><![CDATA[Trk013]]></name>
    <trkseg>
      <trkpt lat="46.2126" lon="0.74839">
        <ele>174</ele>
        <time>2007-04-22T21:47:25Z</time>
      </trkpt>
      <trkpt lat="46.21445" lon="0.74581">
        <ele>155</ele>
        <time>2007-04-22T21:47:25Z</time>
      </trkpt>
      <trkpt lat="46.21584" lon="0.74532">
        <ele>151</ele>
        <time>2007-04-22T21:47:25Z</time>
      </trkpt>
      <trkpt lat="46.21646" lon="0.74459">
        <ele>161</ele>
        <time>2007-04-22T21:47:25Z</time>
      </trkpt>
      <trkpt lat="46.21711" lon="0.74262">
        <ele>169</ele>
        <time>2007-04-22T21:47:25Z</time>
      </trkpt>
      <trkpt lat="46.22019" lon="0.74415">
        <ele>141</ele>
        <time>2007-04-22T21:47:25Z</time>
      </trkpt>
      <trkpt lat="46.22133" lon="0.74503">
        <ele>130</ele>
        <time>2007-04-22T21:47:25Z</time>
      </trkpt>
      <trkpt lat="46.22111" lon="0.74277">
        <ele>136</ele>
        <time>2007-04-22T21:47:25Z</time>
      </trkpt>
      <trkpt lat="46.22063" lon="0.74025">
        <ele>160</ele>
        <time>2007-04-22T21:47:25Z</time>
      </trkpt>
      <trkpt lat="46.22106" lon="0.73888">
        <ele>182</ele>
        <time>2007-04-22T21:47:25Z</time>
      </trkpt>
      <trkpt lat="46.2214" lon="0.73777">
        <ele>189</ele>
        <time>2007-04-22T21:47:25Z</time>
      </trkpt>
      <trkpt lat="46.22101" lon="0.7357">
        <ele>187</ele>
        <time>2007-04-22T21:47:25Z</time>
      </trkpt>
      <trkpt lat="46.22193" lon="0.73386">
        <ele>185</ele>
        <time>2007-04-22T21:47:25Z</time>
      </trkpt>
      <trkpt lat="46.22183" lon="0.73322">
        <ele>184</ele>
        <time>2007-04-22T21:47:25Z</time>
      </trkpt>
      <trkpt lat="46.22386" lon="0.73043">
        <ele>175</ele>
        <time>2007-04-22T21:47:25Z</time>
      </trkpt>
      <trkpt lat="46.22535" lon="0.72449">
        <ele>159</ele>
        <time>2007-04-22T21:47:25Z</time>
      </trkpt>
      <trkpt lat="46.22627" lon="0.72213">
        <ele>175</ele>
        <time>2007-04-22T21:47:25Z</time>
      </trkpt>
      <trkpt lat="46.22681" lon="0.71913">
        <ele>185</ele>
        <time>2007-04-22T21:47:25Z</time>
      </trkpt>
      <trkpt lat="46.22806" lon="0.7152">
        <ele>186</ele>
        <time>2007-04-22T21:47:25Z</time>
      </trkpt>
      <trkpt lat="46.23076" lon="0.70631">
        <ele>174</ele>
        <time>2007-04-22T21:47:25Z</time>
      </trkpt>
      <trkpt lat="46.23085" lon="0.70313">
        <ele>172</ele>
        <time>2007-04-22T21:47:25Z</time>
      </trkpt>
      <trkpt lat="46.23176" lon="0.7007">
        <ele>174</ele>
        <time>2007-04-22T21:47:25Z</time>
      </trkpt>
      <trkpt lat="46.23256" lon="0.69983">
        <ele>174</ele>
        <time>2007-04-22T21:47:25Z</time>
      </trkpt>
      <trkpt lat="46.23283" lon="0.69684">
        <ele>171</ele>
        <time>2007-04-22T21:47:25Z</time>
      </trkpt>
      <trkpt lat="46.23595" lon="0.69766">
        <ele>168</ele>
        <time>2007-04-22T21:47:25Z</time>
      </trkpt>
      <trkpt lat="46.23726" lon="0.6982">
        <ele>166</ele>
        <time>2007-04-22T21:47:25Z</time>
      </trkpt>
      <trkpt lat="46.24016" lon="0.69967">
        <ele>148</ele>
        <time>2007-04-22T21:47:25Z</time>
      </trkpt>
      <trkpt lat="46.24201" lon="0.69987">
        <ele>137</ele>
        <time>2007-04-22T21:47:25Z</time>
      </trkpt>
      <trkpt lat="46.24023" lon="0.69539">
        <ele>157</ele>
        <time>2007-04-22T21:47:25Z</time>
      </trkpt>
      <trkpt lat="46.24002" lon="0.69319">
        <ele>160</ele>
        <time>2007-04-22T21:47:25Z</time>
      </trkpt>
      <trkpt lat="46.2397" lon="0.69274">
        <ele>161</ele>
        <time>2007-04-22T21:47:25Z</time>
      </trkpt>
      <trkpt lat="46.24045" lon="0.69136">
        <ele>161</ele>
        <time>2007-04-22T21:47:25Z</time>
      </trkpt>
      <trkpt lat="46.23967" lon="0.69074">
        <ele>161</ele>
        <time>2007-04-22T21:47:25Z</time>
      </trkpt>
      <trkpt lat="46.24028" lon="0.68955">
        <ele>158</ele>
        <time>2007-04-22T21:47:25Z</time>
      </trkpt>
      <trkpt lat="46.24077" lon="0.68869">
        <ele>153</ele>
        <time>2007-04-22T21:47:25Z</time>
      </trkpt>
      <trkpt lat="46.24106" lon="0.68726">
        <ele>140</ele>
        <time>2007-04-22T21:47:25Z</time>
      </trkpt>
      <trkpt lat="46.24213" lon="0.68658">
        <ele>132</ele>
        <time>2007-04-22T21:47:25Z</time>
      </trkpt>
      <trkpt lat="46.2399" lon="0.68502">
        <ele>133</ele>
        <time>2007-04-22T21:47:25Z</time>
      </trkpt>
      <trkpt lat="46.23943" lon="0.68348">
        <ele>133</ele>
        <time>2007-04-22T21:47:25Z</time>
      </trkpt>
      <trkpt lat="46.23735" lon="0.68238">
        <ele>134</ele>
        <time>2007-04-22T21:47:25Z</time>
      </trkpt>
      <trkpt lat="46.23626" lon="0.68196">
        <ele>133</ele>
        <time>2007-04-22T21:47:25Z</time>
      </trkpt>
      <trkpt lat="46.23563" lon="0.68223">
        <ele>130</ele>
        <time>2007-04-22T21:47:25Z</time>
      </trkpt>
      <trkpt lat="46.23466" lon="0.68025">
        <ele>120</ele>
        <time>2007-04-22T21:47:25Z</time>
      </trkpt>
      <trkpt lat="46.23322" lon="0.67712">
        <ele>114</ele>
        <time>2007-04-22T21:47:25Z</time>
      </trkpt>
      <trkpt lat="46.2322" lon="0.67482">
        <ele>132</ele>
        <time>2007-04-22T21:47:25Z</time>
      </trkpt>
      <trkpt lat="46.23093" lon="0.67414">
        <ele>136</ele>
        <time>2007-04-22T21:47:25Z</time>
      </trkpt>
      <trkpt lat="46.23153" lon="0.67257">
        <ele>138</ele>
        <time>2007-04-22T21:47:25Z</time>
      </trkpt>
      <trkpt lat="46.2312" lon="0.67161">
        <ele>140</ele>
        <time>2007-04-22T21:47:25Z</time>
      </trkpt>
      <trkpt lat="46.23178" lon="0.66822">
        <ele>157</ele>
        <time>2007-04-22T21:47:25Z</time>
      </trkpt>
      <trkpt lat="46.23166" lon="0.66867">
        <ele>155</ele>
        <time>2007-04-22T21:47:25Z</time>
      </trkpt>
      <trkpt lat="46.23098" lon="0.66578">
        <ele>158</ele>
        <time>2007-04-22T21:47:25Z</time>
      </trkpt>
      <trkpt lat="46.23186" lon="0.66095">
        <ele>149</ele>
        <time>2007-04-22T21:47:25Z</time>
      </trkpt>
      <trkpt lat="46.2318" lon="0.65687">
        <ele>120</ele>
        <time>2007-04-22T21:47:25Z</time>
      </trkpt>
      <trkpt lat="46.23188" lon="0.65349">
        <ele>116</ele>
        <time>2007-04-22T21:47:25Z</time>
      </trkpt>
      <trkpt lat="46.23188" lon="0.65369">
        <ele>116</ele>
        <time>2007-04-22T21:47:25Z</time>
      </trkpt>
      <trkpt lat="46.23169" lon="0.65259">
        <ele>116</ele>
        <time>2007-04-22T21:47:25Z</time>
      </trkpt>
      <trkpt lat="46.2328" lon="0.65185">
        <ele>122</ele>
        <time>2007-04-22T21:47:25Z</time>
      </trkpt>
      <trkpt lat="46.2331" lon="0.65112">
        <ele>124</ele>
        <time>2007-04-22T21:47:25Z</time>
      </trkpt>
      <trkpt lat="46.23215" lon="0.6505">
        <ele>124</ele>
        <time>2007-04-22T21:47:25Z</time>
      </trkpt>
      <trkpt lat="46.23257" lon="0.64822">
        <ele>133</ele>
        <time>2007-04-22T21:47:25Z</time>
      </trkpt>
      <trkpt lat="46.23366" lon="0.64592">
        <ele>133</ele>
        <time>2007-04-22T21:47:25Z</time>
      </trkpt>
      <trkpt lat="46.23393" lon="0.64332">
        <ele>139</ele>
        <time>2007-04-22T21:47:25Z</time>
      </trkpt>
      <trkpt lat="46.23338" lon="0.63944">
        <ele>153</ele>
        <time>2007-04-22T21:47:25Z</time>
      </trkpt>
      <trkpt lat="46.23335" lon="0.63769">
        <ele>156</ele>
        <time>2007-04-22T21:47:25Z</time>
      </trkpt>
      <trkpt lat="46.22986" lon="0.63592">
        <ele>154</ele>
        <time>2007-04-22T21:47:25Z</time>
      </trkpt>
      <trkpt lat="46.2309" lon="0.63025">
        <ele>146</ele>
        <time>2007-04-22T21:47:25Z</time>
      </trkpt>
      <trkpt lat="46.23096" lon="0.62545">
        <ele>144</ele>
        <time>2007-04-22T21:47:25Z</time>
      </trkpt>
      <trkpt lat="46.23016" lon="0.62301">
        <ele>141</ele>
        <time>2007-04-22T21:47:25Z</time>
      </trkpt>
      <trkpt lat="46.23013" lon="0.62074">
        <ele>144</ele>
        <time>2007-04-22T21:47:25Z</time>
      </trkpt>
      <trkpt lat="46.23091" lon="0.61897">
        <ele>144</ele>
        <time>2007-04-22T21:47:25Z</time>
      </trkpt>
      <trkpt lat="46.22979" lon="0.61654">
        <ele>144</ele>
        <time>2007-04-22T21:47:25Z</time>
      </trkpt>
      <trkpt lat="46.23147" lon="0.61441">
        <ele>151</ele>
        <time>2007-04-22T21:47:25Z</time>
      </trkpt>
      <trkpt lat="46.23208" lon="0.61284">
        <ele>152</ele>
        <time>2007-04-22T21:47:25Z</time>
      </trkpt>
      <trkpt lat="46.2317" lon="0.60896">
        <ele>157</ele>
        <time>2007-04-22T21:47:25Z</time>
      </trkpt>
      <trkpt lat="46.23068" lon="0.60354">
        <ele>161</ele>
        <time>2007-04-22T21:47:25Z</time>
      </trkpt>
      <trkpt lat="46.23031" lon="0.60018">
        <ele>160</ele>
        <time>2007-04-22T21:47:25Z</time>
      </trkpt>
      <trkpt lat="46.23045" lon="0.59733">
        <ele>158</ele>
        <time>2007-04-22T21:47:25Z</time>
      </trkpt>
      <trkpt lat="46.23069" lon="0.59278">
        <ele>160</ele>
        <time>2007-04-22T21:47:25Z</time>
      </trkpt>
      <trkpt lat="46.2328" lon="0.58681">
        <ele>148</ele>
        <time>2007-04-22T21:47:25Z</time>
      </trkpt>
      <trkpt lat="46.23351" lon="0.57979">
        <ele>157</ele>
        <time>2007-04-22T21:47:25Z</time>
      </trkpt>
      <trkpt lat="46.23423" lon="0.57723">
        <ele>158</ele>
        <time>2007-04-22T21:47:25Z</time>
      </trkpt>
      <trkpt lat="46.23795" lon="0.57329">
        <ele>152</ele>
        <time>2007-04-22T21:47:25Z</time>
      </trkpt>
      <trkpt lat="46.24152" lon="0.57136">
        <ele>146</ele>
        <time>2007-04-22T21:47:25Z</time>
      </trkpt>
      <trkpt lat="46.24254" lon="0.57061">
        <ele>145</ele>
        <time>2007-04-22T21:47:25Z</time>
      </trkpt>
      <trkpt lat="46.24362" lon="0.5674">
        <ele>143</ele>
        <time>2007-04-22T21:47:25Z</time>
      </trkpt>
      <trkpt lat="46.24498" lon="0.56554">
        <ele>140</ele>
        <time>2007-04-22T21:47:25Z</time>
      </trkpt>
      <trkpt lat="46.2461" lon="0.56479">
        <ele>139</ele>
        <time>2007-04-22T21:47:25Z</time>
      </trkpt>
      <trkpt lat="46.24693" lon="0.56093">
        <ele>138</ele>
        <time>2007-04-22T21:47:25Z</time>
      </trkpt>
      <trkpt lat="46.24804" lon="0.5598">
        <ele>135</ele>
        <time>2007-04-22T21:47:25Z</time>
      </trkpt>
      <trkpt lat="46.24866" lon="0.55906">
        <ele>135</ele>
        <time>2007-04-22T21:47:25Z</time>
      </trkpt>
      <trkpt lat="46.25067" lon="0.55835">
        <ele>138</ele>
        <time>2007-04-22T21:47:25Z</time>
      </trkpt>
      <trkpt lat="46.25008" lon="0.55765">
        <ele>139</ele>
        <time>2007-04-22T21:47:25Z</time>
      </trkpt>
      <trkpt lat="46.25034" lon="0.557">
        <ele>140</ele>
        <time>2007-04-22T21:47:25Z</time>
      </trkpt>
      <trkpt lat="46.25044" lon="0.55193">
        <ele>144</ele>
        <time>2007-04-22T21:47:25Z</time>
      </trkpt>
      <trkpt lat="46.25102" lon="0.54893">
        <ele>146</ele>
        <time>2007-04-22T21:47:25Z</time>
      </trkpt>
    </trkseg>
  </trk>
</gpx>